Location: Étouvelles
(49.5207°N, 3.5808°E)
Time: 14:35:05
(UTC+00:00)

Feng Yun 1-1 Rocket - Pass Details

Date: 03 February 2023
Orbit: 830 x 933 km, 99.1° (Epoch: 25 March)

Event Time Altitude Azimuth Distance (km) Brightness Sun altitude
Rises 18:29:29 0° 151° (SSE) 3,452 7.1 -17.2°
Reaches altitude 10° 18:31:54 10° 147° (SSE) 2,503 6.4 -17.6°
Maximum altitude 18:37:21 61° 69° (ENE) 966 4.2 -18.5°
Drops below altitude 10° 18:42:43 10° 351° (N) 2,466 6.7 -19.4°
Sets 18:45:05 0° 348° (NNW) 3,397 7.5 -19.8°
